Frankfort, KY

4:58 AM EDT on April 29, 2017 (GMT -0400)
Capital City

Weather History for KFFT - April, 2014

Change the Weather History Date:

Friday, April 4, 2014

  Actual Average Record
Temperature  
Mean Temperature 55 °F 51 °F  
Max Temperature 66 °F 63 °F 88 °F (1934)
Min Temperature 43 °F 40 °F 21 °F (1992)
Degree Days  
Heating Degree Days 10 14  
Month to date heating degree days 21 58  
Since 1 July heating degree days 4885 4322  
Cooling Degree Days 0 0  
Month to date cooling degree days 0 0  
Year to date cooling degree days 0 2  
Growing Degree Days 4 (Base 50)    
Moisture  
Dew Point 54 °F    
Average Humidity 79    
Maximum Humidity 100    
Minimum Humidity 58    
Precipitation  
Precipitation 0.84 in 0.10 in 2.47 in (1957)
Month to date precipitation 2.15 0.44  
Year to date precipitation 10.57 11.37  
Sea Level Pressure  
Sea Level Pressure 29.74 in    
Wind  
Wind Speed 11 mph (WSW)    
Max Wind Speed 25 mph    
Max Gust Speed 37 mph    
Visibility 8 miles    
Events Rain , Thunderstorm    
T = Trace of Precipitation, MM = Missing Value Source: NWS Daily Summary

Daily Weather History Graph

Daily Weather History Graph

Search for Another Location

Airport or City:

Trip Planner

Search our weather history database for the weather conditions in past years. The results will help you decide how hot, cold, wet, or windy it might be!

Date:

Astronomy

Apr. 04, 2014 Rise Set
Actual Time 7:20 AM EDT 8:05 PM EDT
Civil Twilight 6:53 AM EDT 8:32 PM EDT
Nautical Twilight 6:21 AM EDT 9:03 PM EDT
Astronomical Twilight 5:49 AM EDT 9:36 PM EDT
Moon 10:39 AM EDT (4/4) 12:20 AM EDT (4/4)
Length of Visible Light 13h 38m
Length of Day
12h 45m
Waxing Crescent, 25% of the Moon is Illuminated
Apr 4
Waxing Crescent
Apr 7
First Quarter
Apr 15
Full
Apr 22
Last Quarter
Apr 29
New

Hourly Weather History & Observations

Time (EDT) Temp. Windchill Dew Point Humidity Pressure Visibility Wind Dir Wind Speed Gust Speed Precip Events Conditions
12:46 AM 59.0 °F - 59.0 °F 100% 29.78 in 10.0 mi South 6.9 mph - 0.02 in Thunderstorm Overcast
12:53 AM 59.0 °F - 57.9 °F 96% 29.78 in 10.0 mi WSW 6.9 mph - 0.02 in Thunderstorm Overcast
1:03 AM 59.0 °F - 59.0 °F 100% 29.79 in 8.0 mi Calm Calm - N/A Thunderstorm Thunderstorm
1:07 AM 59.0 °F - 59.0 °F 100% 29.81 in 1.8 mi West 5.8 mph - 0.08 in Rain , Thunderstorm Thunderstorms and Rain
1:11 AM 59.0 °F - 57.9 °F 96% 29.80 in 0.8 mi West 4.6 mph - 0.25 in Rain , Thunderstorm Heavy Thunderstorms and Rain
1:20 AM 59.0 °F - 59.0 °F 100% 29.78 in 1.5 mi South 3.5 mph - 0.28 in Rain , Thunderstorm Light Thunderstorms and Rain
1:22 AM 59.0 °F - 59.0 °F 100% 29.78 in 3.0 mi South 4.6 mph - 0.28 in Rain , Thunderstorm Light Thunderstorms and Rain
1:34 AM 59.0 °F - 57.9 °F 96% 29.76 in 10.0 mi SE 5.8 mph - 0.30 in Rain , Thunderstorm Light Rain
1:53 AM 59.0 °F - 57.9 °F 96% 29.72 in 10.0 mi SE 6.9 mph - 0.30 in Rain , Thunderstorm Light Rain
2:12 AM 59.0 °F - 57.9 °F 96% 29.73 in 10.0 mi SSE 10.4 mph - 0.00 in Thunderstorm Thunderstorm
2:27 AM 60.1 °F - 57.9 °F 93% 29.72 in 10.0 mi SE 8.1 mph - 0.01 in Rain , Thunderstorm Light Rain
2:36 AM 60.1 °F - 57.9 °F 93% 29.71 in 9.0 mi SE 8.1 mph - 0.02 in Rain Light Rain
2:44 AM 60.1 °F - 57.9 °F 93% 29.71 in 10.0 mi SE 6.9 mph - 0.02 in Rain , Thunderstorm Light Rain
2:53 AM 60.1 °F - 57.9 °F 93% 29.69 in 10.0 mi SE 8.1 mph - 0.02 in Rain Light Rain
3:09 AM 60.1 °F - 57.9 °F 93% 29.70 in 8.0 mi SE 6.9 mph - 0.02 in Rain , Thunderstorm Light Thunderstorms and Rain
3:24 AM 60.1 °F - 57.9 °F 93% 29.72 in 10.0 mi NW 12.7 mph 16.1 mph 0.02 in Thunderstorm Overcast
3:35 AM 60.1 °F - 57.9 °F 93% 29.69 in 10.0 mi Variable 6.9 mph - 0.02 in   Overcast
3:53 AM 60.1 °F - 57.9 °F 93% 29.67 in 10.0 mi NNE 6.9 mph - 0.02 in   Overcast
4:05 AM 60.1 °F - 57.9 °F 93% 29.68 in 10.0 mi North 12.7 mph - N/A Thunderstorm Overcast
4:22 AM 60.1 °F - 57.0 °F 90% 29.67 in 10.0 mi NNE 10.4 mph - N/A   Overcast
4:43 AM 59.0 °F - 55.9 °F 90% 29.66 in 10.0 mi NNW 5.8 mph - N/A   Overcast
4:53 AM 59.0 °F - 55.9 °F 90% 29.62 in 10.0 mi ENE 9.2 mph - N/A   Overcast
5:06 AM 59.0 °F - 57.0 °F 93% 29.65 in 10.0 mi North - - N/A Thunderstorm Overcast
5:23 AM 60.1 °F - 57.0 °F 90% 29.67 in 2.5 mi NW 11.5 mph - 0.07 in Rain , Thunderstorm Heavy Thunderstorms and Rain
5:31 AM 60.1 °F - 57.0 °F 90% 29.68 in 3.0 mi NW 11.5 mph 20.7 mph 0.11 in Rain , Thunderstorm Thunderstorms and Rain
5:43 AM 59.0 °F - 57.0 °F 93% 29.67 in 5.0 mi NW 5.8 mph - 0.14 in Rain Light Rain
5:53 AM 59.0 °F - 57.9 °F 96% 29.66 in 9.0 mi Variable 3.5 mph - 0.14 in Rain Light Rain
6:53 AM 57.0 °F - 57.0 °F 100% 29.64 in 9.0 mi ESE 6.9 mph - 0.02 in Rain Light Rain
7:49 AM 57.2 °F - 57.2 °F 100% 29.68 in 2.0 mi SW 5.8 mph - 0.16 in Rain Rain
7:53 AM 57.9 °F - 57.0 °F 97% 29.68 in 2.5 mi Variable 3.5 mph - 0.17 in Rain Rain
8:01 AM 57.9 °F - 57.0 °F 97% 29.70 in 4.0 mi SW 4.6 mph - 0.01 in Rain Light Rain
8:10 AM 57.9 °F - 57.0 °F 97% 29.70 in 5.0 mi WSW 5.8 mph - 0.02 in Rain Light Rain
8:44 AM 57.9 °F - 57.0 °F 97% 29.68 in 8.0 mi WSW 5.8 mph - 0.06 in Rain Light Rain
8:53 AM 57.9 °F - 57.0 °F 97% 29.68 in 8.0 mi WSW 8.1 mph - 0.07 in Rain Light Rain
9:53 AM 57.9 °F - 57.0 °F 97% 29.60 in 9.0 mi SE 10.4 mph - 0.09 in Rain Light Rain
10:53 AM 61.0 °F - 57.9 °F 90% 29.65 in 10.0 mi South 12.7 mph - 0.00 in   Clear
11:53 AM 62.1 °F - 55.9 °F 80% 29.66 in 10.0 mi SW 15.0 mph 21.9 mph N/A   Overcast
12:17 PM 62.1 °F - 55.9 °F 80% 29.67 in 9.0 mi SW 21.9 mph 28.8 mph N/A   Overcast
12:53 PM 60.1 °F - 57.0 °F 90% 29.68 in 9.0 mi SW 12.7 mph 23.0 mph 0.00 in   Overcast
1:02 PM 60.1 °F - 57.0 °F 90% 29.69 in 10.0 mi SW 11.5 mph - 0.00 in Rain Light Rain
1:53 PM 63.0 °F - 55.9 °F 78% 29.68 in 10.0 mi WSW 19.6 mph 29.9 mph 0.01 in   Mostly Cloudy
2:03 PM 64.9 °F - 55.9 °F 73% 29.68 in 10.0 mi WSW 19.6 mph 32.2 mph N/A   Scattered Clouds
2:51 PM 60.8 °F - 51.8 °F 72% 29.72 in 10.0 mi West 18.4 mph 29.9 mph N/A   Mostly Cloudy
2:53 PM 60.1 °F - 52.0 °F 75% 29.72 in 10.0 mi West 16.1 mph 29.9 mph N/A   Mostly Cloudy
3:53 PM 55.9 °F - 46.0 °F 69% 29.75 in 10.0 mi West 17.3 mph 35.7 mph N/A   Mostly Cloudy
4:53 PM 53.1 °F - 43.0 °F 69% 29.81 in 10.0 mi West 13.8 mph 26.5 mph N/A   Overcast
5:53 PM 50.0 °F - 39.0 °F 66% 29.86 in 10.0 mi West 19.6 mph 24.2 mph N/A   Overcast
6:53 PM 46.9 °F - 36.0 °F 66% 29.91 in 10.0 mi West 10.4 mph 20.7 mph N/A   Overcast
7:53 PM 46.0 °F 39.9 °F 35.1 °F 66% 29.94 in 10.0 mi West 13.8 mph 20.7 mph N/A   Overcast
8:53 PM 45.0 °F 39.7 °F 33.1 °F 63% 29.97 in 10.0 mi West 10.4 mph 17.3 mph N/A   Overcast
9:53 PM 45.0 °F 40.6 °F 32.0 °F 60% 29.99 in 10.0 mi WNW 8.1 mph 16.1 mph N/A   Overcast
10:53 PM 45.0 °F 40.6 °F 30.9 °F 58% 30.01 in 10.0 mi West 8.1 mph 19.6 mph N/A   Overcast
11:53 PM 45.0 °F 40.6 °F 32.0 °F 60% 30.02 in 10.0 mi WNW 8.1 mph 21.9 mph N/A   Overcast